Temperature
16 16 16 16 16 16 17 17 17 16 17 17 17 17 17 17 16 16 16 16 16 16 16 16 16 16 16 16 15 15 15 15 15 15 15 15 15 15
16 16 16 16 16 16 16 16 16 16 16 16 16 16 16 16 16 16 16 16 16 16 16 16 16 15 15 15 15 15 15 15 15 15 15 15 15 15
16 15 16 16 16 16 16 16 16 16 16 16 16 16 16 16 16 16 16 15 15 15 15 15 15 15 15 15 15 15 15 15 15 15 15 15 15 15
15 15 15 15 15 15 15 15 15 16 15 15 15 16 16 15 15 15 15 15 15 15 15 15 15 15 15 15 15 15 14 14 14 14 14 14 14 14
15 15 15 15 15 15 15 15 15 15 15 15 15 15 15 15 15 15 15 15 15 15 15 15 15 15 15 14 14 14 14 14 14 14 14 14 14 14
15 15 15 15 15 15 15 15 15 15 15 14 14 14 15 15 14 14 14 14 14 14 14 14 14 14 14 14 14 14 14 14 14 14 14 14 13 13
15 15 15 14 15 15 14 14 14 14 14 14 14 14 14 14 14 14 14 14 14 14 14 14 14 14 14 14 14 14 14 14 14 13 13 13 13 13
14 14 14 14 14 14 14 14 14 14 14 13 13 13 14 14 14 13 13 13 13 14 14 14 13 13 14 14 14 14 13 13 13 13 13 13 13 13
14 14 14 14 14 14 14 14 13 13 13 13 13 13 13 13 13 13 13 13 13 13 13 13 13 13 13 13 13 13 13 13 13 13 13 13 13 13
14 14 14 14 14 14 13 13 13 13 13 13 13 13 13 13 13 13 13 13 13 13 13 13 13 13 13 13 13 13 13 13 13 13 13 13 13 12
13 13 13 13 13 13 13 13 13 13 13 13 13 13 13 13 13 13 13 12 12 13 13 13 13 13 13 13 13 13 13 13 12 12 12 12 12 12
13 13 13 13 13 13 13 13 13 13 13 12 13 13 13 13 13 12 12 12 12 12 12 12 12 12 12 12 12 12 12 12 12 12 12 12 12 12
13 13 13 13 13 13 13 13 12 12 12 12 12 12 12 12 12 12 12 12 12 12 12 12 12 12 12 12 12 12 12 12 12 12 12 12 12 11
12 12 12 13 13 13 12 12 12 12 12 12 12 12 12 12 12 12 12 12 12 12 12 12 11 11 11 11 11 11 11 11 12 11 11 11 11 11
12 12 12 12 12 12 12 12 12 12 12 11 11 11 11 12 12 12 12 12 12 12 12 12 11 11 11 11 11 11 11 11 11 11 11 11 11 11
12 12 12 12 12 12 12 12 12 12 11 11 11 11 11 11 11 11 11 11 11 11 11 11 11 11 11 11 11 11 11 11 11 11 11 11 11 11
12 11 11 11 12 12 12 12 12 11 11 11 11 11 11 11 11 11 11 11 11 11 11 11 11 11 11 11 11 10 10 10 10 10 10 10 10 11
11 11 11 11 11 11 11 11 11 11 11 11 11 11 11 10 10 10 10 10 10 10 10 10 10 10 10 10 10 10 10 10 10 10 10 10 10 10
11 11 11 11 11 11 11 11 11 11 11 10 10 10 10 10 10 10 10 10 10 10 10 10 10 10 10 10 10 10 10 10 10 10 10 10 10 10
11 11 11 11 11 10 10 10 10 10 10 10 10 10 10 10 10 9 9 9 9 9 9 9 9 9 9 9 9 9 9 9 9 9 9 9 10 10
10 10 10 10 10 10 10 10 10 10 10 10 9 9 9 9 9 9 9 9 9 9 9 9 9 9 9 9 9 9 9 9 9 9 9 9 9 9
10 10 10 10 10 10 10 10 9 9 9 9 9 9 9 9 9 9 9 9 9 9 8 8 8 8 8 8 8 8 9 9 9 9 9 9 9 9
10 10 10 10 9 9 9 9 9 9 9 9 9 9 9 9 9 9 8 8 8 8 8 8 8 8 8 8 8 8 8 9 9 9 9 9 9 9
Wind_Speed
3 2 3 3 3 3 2 1 1 2 2 1 1 1 1 2 4 4 3 7 9 10 10 10 9 8 8 7 7 7 7 8 8 8 9 9 9 10
2 2 3 3 3 3 2 2 1 2 2 2 2 1 1 1 3 2 3 7 10 11 11 11 10 10 9 8 8 7 8 8 8 8 8 8 9 9
3 2 2 3 3 3 3 2 2 1 2 2 2 1 1 2 1 3 4 5 7 11 12 12 12 12 11 10 9 9 9 8 8 9 9 9 9 9
3 3 3 2 2 3 3 3 3 2 2 3 2 2 3 3 2 2 3 4 4 8 12 13 12 12 12 12 11 10 9 9 9 9 9 9 9 9
3 3 3 2 2 2 3 3 3 3 2 3 3 2 2 2 2 3 3 2 5 5 8 10 12 12 12 12 12 11 11 10 10 9 9 9 9 9
3 3 3 3 2 3 3 2 3 3 3 2 3 2 2 1 1 2 3 2 3 4 3 5 9 11 11 12 12 12 11 11 11 10 10 10 9 9
3 3 3 3 3 3 3 2 2 2 2 3 3 2 2 2 2 2 3 3 3 3 2 3 3 4 7 10 11 12 11 11 11 11 11 10 10 10
3 3 2 1 1 2 2 3 3 3 3 3 3 3 3 3 2 3 3 3 3 2 3 4 3 3 4 5 9 11 11 11 11 11 11 11 10 10
2 3 4 3 1 1 2 4 4 5 5 4 4 4 4 3 3 4 4 4 5 4 3 4 3 3 3 4 9 10 10 11 11 12 12 12 12 11
2 2 2 2 2 2 3 3 3 3 4 4 4 5 5 3 4 5 5 5 5 4 3 3 3 3 3 3 7 10 11 12 11 11 11 12 12 11
2 2 1 1 2 2 3 3 4 3 4 5 6 6 7 8 6 4 4 4 5 4 2 2 3 3 3 3 5 9 11 12 12 12 11 11 12 11
2 1 0 0 2 2 3 3 4 4 5 6 5 6 6 7 7 5 4 4 4 4 3 2 3 3 3 2 2 4 6 9 11 11 11 12 12 8
3 2 1 1 2 4 4 4 6 6 6 6 5 4 4 4 4 4 4 4 4 5 4 2 3 3 3 3 2 3 4 4 5 7 10 12 12 9
3 3 2 4 5 6 6 7 8 7 5 4 4 3 3 2 3 3 4 4 5 6 5 3 4 4 4 4 3 3 3 3 4 4 5 8 10 13
3 4 5 6 6 6 8 8 6 4 3 4 4 4 3 3 3 3 3 3 4 6 5 4 5 4 4 4 4 3 3 3 3 3 4 4 5 5
4 5 7 7 7 6 5 5 4 3 3 4 4 3 3 3 3 3 2 2 3 4 4 5 4 4 4 5 4 5 4 3 3 3 3 3 4 5
4 4 4 4 3 3 3 3 3 2 3 3 3 3 3 3 2 2 2 2 3 3 3 3 3 3 4 4 4 4 4 4 4 4 3 4 4 4
3 4 4 4 4 3 3 3 2 2 2 3 3 3 3 3 3 3 2 3 3 4 3 3 2 2 3 3 4 5 4 4 4 4 4 4 4 3
3 4 4 3 3 3 3 3 3 2 2 2 3 3 3 3 3 3 3 3 3 4 4 3 2 2 4 5 3 3 3 4 4 4 4 4 5 4
3 3 3 3 3 3 3 3 2 1 1 2 3 3 3 3 3 3 3 4 4 4 4 3 2 2 4 5 4 4 5 4 4 4 4 3 3 3
3 4 4 3 3 2 2 2 2 2 2 2 3 3 3 3 3 4 3 4 4 4 4 4 3 5 4 3 3 3 3 3 4 4 4 3 3 2
3 4 3 2 2 2 2 2 2 2 2 3 3 3 3 3 4 4 4 3 3 4 4 4 4 4 3 4 4 4 4 3 3 3 4 3 2 2
3 3 2 2 2 2 2 3 3 2 2 3 4 4 4 3 4 3 3 3 3 4 4 4 3 3 4 3 3 3 4 3 2 1 1 2 3 4
Wind_Direction
316 321 308 306 306 311 305 290 283 294 297 275 292 110 139 148 178 192 189 200 205 208 212 216 218 221 226 229 230 233 233 235 239 242 239 238 243 245
290 317 314 315 317 314 314 308 294 267 281 316 330 331 13 293 211 220 239 223 215 215 217 216 218 220 223 225 227 233 234 235 238 241 241 239 241 245
291 283 276 285 305 311 306 306 302 283 271 286 299 310 306 280 246 248 253 229 221 223 218 218 219 219 221 223 227 231 234 237 240 242 243 242 241 242
280 280 276 269 282 296 300 292 290 282 253 270 281 280 265 255 242 245 258 259 246 232 220 221 220 220 220 223 225 229 233 237 241 244 246 247 244 240
278 271 266 267 270 280 282 288 287 294 264 258 268 263 265 272 261 260 268 265 268 250 223 222 223 224 223 225 226 227 230 233 235 239 242 245 245 242
290 289 264 244 251 270 272 285 298 300 289 276 275 272 270 292 276 271 275 271 277 276 254 235 226 228 227 227 228 226 227 229 230 234 238 241 240 241
290 293 272 244 245 254 270 284 292 290 291 283 280 292 293 319 309 295 290 285 279 266 263 252 224 223 223 229 228 229 225 227 228 231 234 236 236 239
305 303 289 277 300 238 259 284 283 275 283 291 290 291 294 303 306 301 301 303 294 281 286 273 236 231 227 217 220 217 219 222 224 226 229 231 231 234
290 292 292 295 314 306 278 273 276 274 268 269 280 284 289 299 302 296 292 287 281 278 284 274 266 260 235 235 203 204 210 216 220 224 226 227 226 227
261 263 260 299 311 314 287 281 272 275 264 261 268 271 277 278 268 274 281 288 281 273 271 271 276 273 273 213 201 202 207 211 216 220 225 225 224 225
273 280 242 239 307 314 290 286 288 283 277 270 266 263 258 260 261 271 274 280 290 291 291 279 284 284 271 252 211 208 211 215 221 223 224 225 224 225
277 257 324 205 271 280 282 285 282 286 291 285 269 259 253 250 248 238 253 269 282 287 289 290 289 298 283 262 217 207 221 226 226 226 226 226 223 221
277 263 248 242 268 259 256 261 265 275 278 273 270 262 253 245 239 235 235 246 265 278 286 301 296 290 273 278 277 238 223 220 218 228 232 232 228 219
284 286 278 266 264 260 252 256 265 273 271 276 277 274 276 274 266 252 247 244 245 252 262 266 272 277 281 283 278 261 246 229 211 219 218 226 230 231
283 292 290 276 265 255 243 249 260 266 274 280 283 280 282 273 270 266 258 257 264 260 257 243 243 259 259 269 271 270 272 261 236 227 217 216 223 225
282 287 281 270 263 257 247 240 241 247 256 271 279 281 287 289 287 281 283 281 271 279 266 252 240 239 254 260 261 266 260 252 250 247 237 235 225 216
275 275 270 273 263 258 257 246 241 247 255 268 280 289 293 293 296 298 292 289 286 285 292 291 275 249 245 256 261 263 264 265 255 246 247 250 239 222
253 263 268 275 279 275 263 256 244 241 248 265 274 277 283 286 285 288 284 285 289 288 289 293 300 298 280 266 251 260 263 268 269 259 248 247 248 233
250 257 263 265 273 280 276 271 266 258 260 273 278 278 280 279 281 288 290 289 288 290 290 289 294 302 297 294 290 273 270 277 274 269 256 243 244 236
260 272 276 279 281 286 289 290 285 279 277 283 286 284 281 282 281 280 280 289 295 298 298 296 301 300 288 286 289 292 277 268 273 268 266 265 261 229
272 274 276 277 281 283 281 278 279 281 293 286 285 286 289 288 285 283 284 291 291 297 298 298 288 280 279 278 281 282 292 278 261 258 254 257 261 248
277 275 279 286 281 278 275 274 274 276 286 288 289 283 281 284 287 287 285 285 286 291 296 294 290 285 284 281 281 288 293 290 272 266 266 253 229 223
271 268 265 276 274 265 265 267 270 271 272 283 290 293 289 286 283 285 293 292 290 295 297 296 300 300 298 293 287 292 290 283 288 307 318 303 228 218
Height
1520 1520 1520 1520 1520 1520 1520 1520 1521 1519 1519 1520 1520 1519 1519 1519 1518 1517 1517 1517 1517 1517 1517 1517 1517 1517 1518 1518 1518 1519 1519 1519 1520 1520 1520 1521 1522 1524
1518 1518 1517 1517 1517 1517 1517 1517 1518 1518 1517 1517 1517 1517 1516 1516 1515 1515 1514 1513 1513 1513 1513 1513 1513 1514 1514 1514 1514 1515 1515 1515 1516 1516 1516 1517 1518 1519
1516 1515 1515 1514 1514 1514 1515 1515 1515 1515 1514 1514 1514 1514 1514 1513 1512 1511 1511 1510 1510 1510 1510 1510 1510 1510 1510 1510 1510 1510 1511 1511 1512 1512 1512 1513 1513 1514
1513 1512 1512 1512 1511 1511 1511 1512 1512 1512 1512 1511 1511 1511 1510 1510 1509 1509 1508 1508 1507 1507 1506 1506 1506 1506 1506 1506 1506 1506 1507 1507 1507 1507 1508 1508 1509 1509
1510 1509 1509 1509 1508 1508 1508 1508 1509 1509 1508 1508 1507 1508 1507 1507 1506 1505 1505 1504 1504 1504 1503 1503 1502 1502 1502 1502 1502 1502 1502 1502 1503 1503 1503 1504 1504 1505
1507 1506 1505 1505 1505 1505 1505 1505 1505 1505 1505 1505 1504 1504 1504 1503 1503 1502 1501 1501 1500 1500 1500 1499 1498 1498 1498 1498 1498 1498 1498 1498 1498 1498 1498 1499 1499 1500
1504 1503 1503 1502 1502 1502 1502 1502 1502 1502 1502 1502 1502 1501 1501 1500 1499 1498 1498 1497 1497 1497 1496 1495 1494 1494 1493 1493 1493 1493 1493 1493 1494 1494 1494 1494 1495 1495
1501 1500 1500 1499 1499 1498 1498 1498 1499 1499 1499 1499 1499 1498 1497 1497 1496 1496 1495 1494 1493 1494 1493 1491 1491 1490 1489 1489 1489 1489 1489 1489 1489 1489 1489 1490 1490 1491
1498 1497 1497 1497 1496 1495 1495 1495 1495 1496 1496 1496 1496 1495 1494 1494 1494 1493 1492 1491 1490 1489 1489 1487 1487 1486 1486 1485 1485 1485 1485 1485 1485 1485 1485 1485 1485 1486
1495 1495 1494 1493 1493 1492 1492 1492 1492 1492 1492 1493 1492 1492 1491 1491 1491 1490 1489 1488 1487 1486 1486 1484 1483 1482 1482 1482 1481 1481 1481 1481 1481 1481 1481 1481 1481 1481
1493 1492 1491 1491 1490 1490 1490 1489 1489 1489 1489 1489 1489 1488 1488 1487 1487 1486 1485 1484 1482 1482 1482 1481 1480 1479 1478 1477 1477 1477 1477 1477 1477 1477 1476 1476 1476 1477
1490 1489 1488 1488 1488 1487 1487 1486 1485 1485 1485 1485 1485 1485 1484 1484 1483 1483 1482 1481 1480 1479 1479 1478 1477 1476 1474 1473 1473 1473 1473 1473 1473 1473 1472 1472 1473 1472
1487 1486 1486 1485 1485 1484 1484 1483 1483 1483 1482 1482 1481 1481 1480 1480 1479 1479 1478 1478 1476 1475 1475 1475 1473 1473 1472 1470 1469 1469 1469 1469 1469 1468 1468 1468 1468 1468
1485 1484 1483 1482 1481 1481 1480 1480 1480 1479 1479 1478 1478 1477 1477 1476 1476 1475 1475 1474 1473 1472 1471 1471 1470 1469 1468 1466 1465 1465 1465 1465 1464 1464 1464 1464 1464 1464
1481 1480 1479 1478 1478 1477 1477 1477 1476 1476 1476 1475 1474 1474 1474 1473 1472 1472 1471 1470 1469 1468 1467 1467 1466 1465 1464 1462 1460 1460 1460 1460 1460 1460 1459 1459 1459 1459
1477 1476 1475 1475 1474 1474 1474 1473 1473 1473 1472 1472 1471 1471 1470 1469 1468 1468 1467 1466 1465 1464 1463 1463 1462 1461 1460 1459 1458 1456 1456 1456 1456 1456 1455 1455 1455 1454
1473 1472 1472 1471 1471 1471 1470 1470 1470 1470 1469 1469 1468 1467 1467 1466 1465 1465 1464 1463 1462 1460 1459 1459 1458 1457 1456 1455 1454 1453 1452 1452 1451 1451 1451 1450 1450 1450
1470 1469 1468 1468 1468 1468 1467 1467 1466 1466 1466 1466 1465 1464 1464 1463 1462 1462 1461 1460 1458 1457 1456 1455 1454 1453 1452 1451 1451 1449 1448 1447 1447 1446 1446 1446 1445 1445
1467 1466 1466 1466 1466 1465 1464 1464 1463 1463 1463 1463 1462 1462 1461 1460 1460 1459 1458 1456 1455 1454 1453 1452 1451 1450 1448 1446 1445 1446 1445 1443 1442 1441 1441 1441 1441 1441
1465 1464 1464 1463 1463 1462 1461 1460 1460 1460 1459 1459 1459 1459 1458 1457 1457 1456 1455 1454 1453 1451 1450 1449 1448 1447 1445 1444 1442 1441 1441 1439 1438 1437 1437 1437 1437 1438
1461 1461 1460 1460 1459 1458 1458 1457 1457 1457 1456 1456 1456 1456 1455 1454 1453 1453 1452 1451 1450 1449 1447 1445 1444 1444 1442 1441 1439 1437 1436 1436 1434 1433 1433 1433 1433 1433
1458 1457 1456 1456 1455 1455 1455 1454 1454 1453 1453 1453 1452 1452 1452 1451 1450 1449 1448 1447 1446 1445 1444 1442 1441 1440 1439 1437 1435 1433 1432 1432 1431 1430 1430 1430 1430 1429
1454 1453 1453 1453 1452 1452 1451 1451 1450 1450 1449 1449 1449 1448 1448 1447 1446 1445 1444 1443 1443 1441 1440 1439 1438 1436 1435 1434 1432 1431 1430 1429 1428 1427 1427 1427 1428 1428